Flag for Dominican Republic Weather past 2 weeks in Santiago de los Caballeros, Dominican Republic

Now
77 °F

Warm.


Feels Like: 78 °F
Forecast: N/A
Wind: 20 mph from Southeast

Location: Santiago

Current Time: Sep 2, 2015 at 5:51:32 PM

Latest Report: Sep 2, 2015 at 5:00 PM


Visibility: N/A

Pressure: 29.95 "Hg

Humidity: 89%

Dew point: 73 °F

Location of Santiago de los CaballerosLocation

Historic Weather in Santiago de los Caballeros — Graph

°F

Santiago de los Caballeros temperature yesterday

Maximum temperature yesterday: 93 °F (at 2:00 PM)
Minimum temperature yesterday: 75 °F (at 5:00 AM)
Average temperature yesterday: 82 °F

Past Weeks' High & Low Weather Summary

 TemperatureHumidityPressure
High97 °F (Aug 20, 2:00 PM)100% (Aug 29, 12:00 AM)30.04 "Hg (Aug 29, 12:00 AM)
Low73 °F (Aug 24, 5:00 AM)34% (Aug 21, 3:00 PM)29.83 "Hg (Aug 22, 4:00 PM)
Average83 °F73%29.96 "Hg
* Reported Aug 18 4:00 PM — Sep 2 4:00 PM, Santiago de los Caballeros, Weather by CustomWeather, © 2015

Note: Actual official high and low records may vary slightly from our data, if they occured in-between our weather recording intervals... More about our weather records

Advertising

Santiago de los Caballeros weather history for previous 24 hours

 ConditionsComfort  
Time TempWeatherWind HumidityBarometerVisibility
4:00 PM
Wed, Sep 2
91 °FScattered clouds.7 mph52%29.92 "HgN/A
3:00 PM93 °FScattered clouds.12 mph53%29.92 "HgN/A
2:00 PM93 °FScattered clouds.14 mph53%29.95 "HgN/A
1:00 PM90 °FScattered clouds.14 mph59%29.98 "HgN/A
12:00 PM90 °FScattered clouds.14 mph59%30.01 "HgN/A
11:00 AM88 °FScattered clouds.8 mph62%30.04 "HgN/A
10:00 AM86 °FScattered clouds.8 mph66%30.04 "HgN/A
9:00 AM82 °FScattered clouds.No wind79%30.04 "HgN/A
8:00 AM75 °FPassing clouds.No wind94%30.01 "HgN/A
7:00 AM75 °FPassing clouds.5 mph94%30.01 "HgN/A
6:00 AM75 °FPassing clouds.No wind100%29.98 "HgN/A
5:00 AM75 °FPassing clouds.No wind94%29.98 "HgN/A
4:00 AM75 °FPassing clouds.No wind94%29.98 "HgN/A
2:00 AM77 °FPassing clouds.7 mph94%30.04 "HgN/A
1:00 AM79 °FPassing clouds.6 mph89%30.04 "HgN/A
11:00 PM
Tue, Sep 1
79 °FPassing clouds.10 mph89%30.04 "HgN/A
10:00 PM81 °FPassing clouds.7 mph84%30.04 "HgN/A
9:00 PM81 °FPassing clouds.9 mph79%30.04 "HgN/A
8:00 PM82 °FPassing clouds.12 mph74%30.01 "HgN/A
7:00 PM84 °FPassing clouds.12 mph70%29.98 "HgN/A
5:00 PM86 °FScattered clouds.9 mph70%29.95 "HgN/A
Weather by CustomWeather, © 2015

See weather overviewHow to use our weather pages